Regional Weather Roundup
Issued by NWS

Home | Current Version | Previous Version | Graphics & Text | Print | Product List | Glossary On
Versions: 1 2 3 4 5 6 7 8 9 10 11 12 13 14 15 16 17 18 19 20 21 22 23 24 25 26 27 28 29 30 31 32 33 34 35 36 37 38 39 40 41 42 43 44 45 46 47 48 49 50
000
ASUS45 KTFX 290110
RWRMT
MONTANA REGIONAL WEATHER ROUNDUP
NATIONAL WEATHER SERVICE GREAT FALLS MT
700 PM MDT WED SEP 28 2016

NOTE: "FAIR" INDICATES FEW OR NO CLOUDS BELOW 12000 FEET WITH NO
SIGNIFICANT WEATHER AND/OR OBSTRUCTIONS TO VISIBILITY.

MTZ001>007-043-290200-
WEST OF THE DIVIDE

CITY           SKY/WX    TMP DP  RH WIND       PRES   REMARKS
KALISPELL      CLEAR     71  45  39 N3        30.01F
MISSOULA       CLEAR     77  49  37 CALM      30.00S
BUTTE          CLEAR     70  37  29 SE13      30.16S
MULLAN PASS    PTCLDY    64  41  42 CALM      30.15F
ANACONDA         N/A     73  34  23 S5        30.11S
DEER LODGE       N/A     70  43  37 SW3       30.12S
EUREKA           N/A     68  39  34 CALM      30.03F
HAMILTON         N/A     75  48  38 CALM      30.02S
LIBBY            N/A     72  50  46 CALM      29.98S
PLAINS           N/A     76  47  35 CALM      29.98S
RONAN            N/A     70  44  38 CALM      30.06F
$$

MTZ008-052>055-290200-
SOUTHWEST MONTANA

CITY           SKY/WX    TMP DP  RH WIND       PRES   REMARKS
BOZEMAN        CLEAR     69  48  47 CALM      30.15S
DILLON         CLEAR     67  45  45 NE8       30.14S
W YELLOWSTONE  CLEAR     64  36  34 SW3       30.28S
ENNIS          CLEAR     66  46  48 N6        30.23R
THREE FORKS      N/A     70  23  17 CALM      30.12S
TWIN BRIDGES     N/A     70  42  36 N8        30.11S
$$

MTZ009-010-012-014-046-048-049-054-290200-
EAST SLOPES AND CENTRAL MONTANA

CITY           SKY/WX    TMP DP  RH WIND       PRES   REMARKS
CUT BANK       CLEAR     59  43  55 S5        30.17S
GREAT FALLS    CLEAR     62  47  57 N5        30.14S
MALMSTROM AFB  CLEAR     64  49  58 NE7       30.13F
HELENA         CLEAR     69  46  43 N3        30.10S
CHOTEAU          N/A     59  45  58 SE6       30.18S
CONRAD           N/A     62  50  65 NE2       30.18S
$$

MTZ011-013-016-021-045-047-050-051-290200-
NORTH CENTRAL MONTANA

CITY           SKY/WX    TMP DP  RH WIND       PRES   REMARKS
HAVRE          CLEAR     63  49  60 NE13      30.14F
LEWISTOWN      CLEAR     63  47  55 E12       30.16S
N BAR RANCH      N/A     57  46  67 E8        30.24S
CHINOOK          N/A     63  50  63 NE6       30.15S
$$

MTZ017>020-022>027-061-062-290200-
NORTHEAST MONTANA

CITY           SKY/WX    TMP DP  RH WIND       PRES   REMARKS
GLASGOW        CLEAR     65  50  58 E8        30.18F
JORDAN           N/A     68  53  58 E7        30.17F
SIDNEY         CLEAR     65  55  70 CALM      30.22S
WOLF POINT     CLEAR     66  51  58 NE6       30.20F
PLENTYWOOD       N/A     66  52  59 SE7       30.23S
POPLAR           N/A     64  52  63 E6        30.21S VSB 3/4
SCOBEY           N/A     64  46  52 NE5       30.21R
$$

MTZ028>42-056>058-290200-
SOUTHCENTRAL AND SOUTHEAST MONTANA

CITY           SKY/WX    TMP DP  RH WIND       PRES   REMARKS
BAKER          CLEAR     63  55  75 SE8       30.25S
BILLINGS       CLEAR     66  52  60 NE6       30.16F
LIVINGSTON     CLEAR     64  49  57 E14       30.18F
MILES CITY     CLEAR     70  53  54 E6        30.18F
BIG TIMBER     PTCLDY    61  48  63 E6        30.22S
EKALAKA          N/A     68  48  48 E8        30.22S
FORSYTH          N/A     66  55  68 E3        30.16F
LAUREL           N/A     66  50  56 N5        30.14F
ROUNDUP          N/A     67  49  52 NE2       30.09S
$$

REGIONAL REPORTS...DAKOTAS

CITY           SKY/WX    TMP DP  RH WIND       PRES   REMARKS
WILLISTON      CLEAR     67  48  50 SE10      30.25R
MINOT          CLEAR     57  44  62 E8        30.32R
DICKINSON      CLEAR     58  40  51 E10       30.27S
BEACH            N/A     64  54  68 SE8       30.28R
CROSBY           N/A     63  41  45 SE10      30.28R
WATFORD CITY     N/A     59  45  58 E7        30.27R
BISMARCK       CLEAR     56  47  71 E9        30.33R
GRAND FORKS    PTCLDY    51  46  83 N5        30.37R
FARGO          CLEAR     55  46  71 NE8       30.36R
BUFFALO SD       N/A     68  46  45 E13       30.21R
RAPID CITY     CLEAR     62  43  49 E12       30.29R
$$

REGIONAL REPORTS...WYOMING/IDAHO/WASHINGTON

CITY           SKY/WX    TMP DP  RH WIND       PRES   REMARKS
GILLETTE         N/A     59  48  67 S7        30.26S
SHERIDAN       CLEAR     72  39  30 SE12      30.20S
CODY           CLEAR     70  43  37 SE8       30.22S
YELLOWSTONE LA   N/A     54  38  54 CALM      30.38S
IDAHO FALLS    CLEAR     75  44  33 CALM      30.13S
SALMON         CLEAR     72  43  35 CALM      30.01F
BOISE          CLEAR     88  33  14 SE12      29.91S
SPOKANE        PTCLDY    79  43  27 NE3       29.95F
$$

REGIONAL REPORTS...ALBERTA

CITY           SKY/WX    TMP DP  RH WIND       PRES   REMARKS
EDMONTON       PTCLDY    54  28  37 S12G20    30.22F
CALGARY        MOCLDY    54  41  62 SE9       30.18F
LETHBRIDGE     PTCLDY    57  45  62 NE12G20   30.16F
MEDICINE HAT   PTCLDY    55  37  50 NE14G21   30.19F
WATERTON GATE    N/A     54  41  62 N2          N/A
MILK RIVER       N/A     57  45  62 SE6         N/A
$$

REGIONAL REPORTS...SASKATCHEWAN

CITY           SKY/WX    TMP DP  RH WIND       PRES   REMARKS
SWIFT CURRENT  MOCLDY    52  39  62 NE12      30.25S
REGINA         MOCLDY    61  45  55 NE10      30.25S
SASKATOON      LGT RAIN  48  45  87 NE8       30.35F
CYPRESS HILLS    N/A     55  36  47 E7          N/A
VAL MARIE        N/A     57  46  67 E6          N/A
ROCKGLEN         N/A     59  46  63 E3          N/A
ASSINIBOIA       N/A     54  28  37 SE7         N/A
$$



USA.gov is the U.S. government's official web portal to all federal, state and local government web resources and services.